Regional Weather Roundup
Issued by NWS

Home | Current Version | Previous Version | Text Only | Print | Product List | Glossary Off
Versions: 1 2 3 4 5 6 7 8 9 10 11 12 13 14 15 16 17 18 19 20 21 22 23 24 25 26 27 28 29 30 31 32 33 34 35 36 37 38 39 40 41 42 43 44 45 46 47 48 49 50

000
ASUS43 KLMK 260602
RWRKY
KENTUCKY REGIONAL WEATHER ROUNDUP
NATIONAL WEATHER SERVICE LOUISVILLE KY
200 AM EDT TUE JUL 26 2016

NOTE "FAIR" INDICATES FEW OR NO CLOUDS BELOW 12,000 FEET
WITH NO SIGNIFICANT WEATHER AND/OR OBSTRUCTIONS TO VISIBILITY.

KYZ001>023-026-027-061>063-070>075-260700-
WESTERN AND SOUTH CENTRAL KENTUCKY

CITY           SKY/WX    TMP DP  RH WIND       PRES   REMARKS
PADUCAH        CLOUDY    77  74  90 S3        29.99S
HENDERSON      CLEAR     72  70  94 CALM      29.99S
OWENSBORO      CLEAR     76  75  96 CALM      30.00F
HOPKINSVILLE   CLEAR     75  73  93 CALM      30.01S
BOWLING GREEN  CLEAR     75  73  93 CALM      30.02S
GLASGOW        NOT AVBL
$$

KYZ024-025-028>034-038-045-046-053-260700-
NORTH CENTRAL KENTUCKY

CITY           SKY/WX    TMP DP  RH WIND       PRES   REMARKS
LOUISVILLE/SDF MOCLDY    77  73  87 SW3       30.01S
LOUISVILLE/LOU PTCLDY    77  73  87 CALM      30.02S
FORT KNOX      CLEAR     73  73 100 S2        30.01F FOG
$$

KYZ035>037-039>044-047>052-055>060-089>105-260700-
NORTHEAST KENTUCKY

CITY           SKY/WX    TMP DP  RH WIND       PRES   REMARKS
LEXINGTON      MOCLDY    74  72  93 SW3       30.03S
COVINGTON      MOCLDY    76  75  97 CALM      30.01S
FRANKFORT      MOCLDY    74  72  93 CALM      30.02F FOG
$$

KYZ054-064>069-076>088-106>120-260700-
SOUTHEAST KENTUCKY

CITY           SKY/WX    TMP DP  RH WIND       PRES   REMARKS
JACKSON        PTCLDY    73  71  93 CALM      30.05F
LONDON         CLOUDY    72  67  84 CALM      30.04F
SOMERSET       MOCLDY    70  70 100 CALM      30.04F
MIDDLESBORO    CLEAR     73  70  92 CALM      30.06S
MONTICELLO     CLEAR    N/A N/A N/A W10       30.05S
$$





USA.gov is the U.S. government's official web portal to all federal, state and local government web resources and services.